Location: Newark
(9.4667°S, 159.8167°E)
Time: 22:00:33
(UTC+00:00)

Courier 1B Rocket - Pass Details

Date: 24 November 2019
Orbit: 920 x 1202 km, 28.2° (Epoch: 12 December)

Event Time Altitude Azimuth Distance (km) Brightness Sun altitude
Rises 23:30:56 0° 280° (W) 3,549 7.7 64.2°
Reaches altitude 10° 23:35:42 10° 313° (NW) 2,602 7.1 65.2°
Maximum altitude 23:37:38 11° 331° (NNW) 2,502 7.1 65.6°
Drops below altitude 10° 23:39:36 10° 350° (N) 2,615 7.2 66.1°
Sets 23:44:27 0° 22° (NNE) 3,596 7.9 67.1°
